Regional Weather Roundup
Issued by NWS

Home | Current Version | Previous Version | Text Only | Print | Product List | Glossary Off
Versions: 1 2 3 4 5 6 7 8 9 10 11 12 13 14 15 16 17 18 19 20 21 22 23 24 25 26 27 28 29 30 31 32 33 34 35 36 37 38 39 40 41 42 43 44 45 46 47 48 49

000
ASUS45 KSLC 251310
RWRUT

UTAH REGIONAL WEATHER ROUNDUP
NATIONAL WEATHER SERVICE SALT LAKE CITY UT
700 AM MDT SAT APR 25 2015

UTZ001>011-023>025-251400-

NORTHERN UTAH

CITY           SKY/WX    TMP DP  RH WIND       PRES   REMARKS
BRIGHAM CITY   CLOUDY    44  39  84 CALM      29.83R
HILL AFB       PTCLDY    40  39  94 S5        29.82S
LOGAN          MOCLDY    41  38  89 SW5       29.82F
OGDEN          PTCLDY    42  38  85 S5        29.82S
PROVO AIRPORT  MOCLDY    39  36  87 CALM      29.83S
SALT LAKE CITY MOCLDY    43  38  82 CALM      29.81F
VERNAL         CLOUDY    43  37  79 CALM      29.78S
WENDOVER       CLOUDY    45  34  65 W6        29.82S
HEBER CITY     CLEAR     32  32 100 CALM      29.83S
WEST JORDAN    PTCLDY    39  39 100 CALM      29.83F

$$

UTZ012>022-026-027-251400-

SOUTHERN/CENTRAL UTAH

CITY           SKY/WX    TMP DP  RH WIND       PRES   REMARKS
BLANDING       CLOUDY    45  37  73 S9        29.96R
BRYCE CANYON   MOCLDY    31  29  92 CALM      29.90S
CEDAR CITY     CLOUDY    43  39  86 SW3       29.84S
DELTA          CLOUDY    42  41  96 S7        29.81F
HANKSVILLE     CLOUDY    46  43  87 S6        29.85R
MILFORD        CLOUDY    43  31  62 SW9       29.81S
MOAB/CYNLANDS  LGT RAIN  46  43  89 SE5       29.81S
PRICE          CLOUDY    42  34  73 CALM      29.82R
ST GEORGE      CLOUDY    52  46  82 SE5       29.84R
KANAB          CLOUDY    45  45 100 CALM      29.90S

$$

REGIONAL REPORTS     COLORADO/ARIZONA

CITY           SKY/WX    TMP DP  RH WIND       PRES   REMARKS
CRAIG, CO      CLOUDY    43  37  79 W6        29.83R
GRAND JUNCTION CLOUDY    48  36  63 NW10      29.81R
RIFLE          CLOUDY    42  33  70 E3        29.83S
MONTROSE       CLOUDY    47  35  63 SE12      29.87R
CORTEZ         LGT RAIN  44  40  85 CALM      29.93S
PAGE, AZ       CLOUDY    53  40  61 CALM      29.85S
GRAND CANYON   CLOUDY    41  36  82 S8        29.94F
KINGMAN        CLEAR     47  38  71 SE7       29.86R
FLAGSTAFF      CLOUDY    40  37  89 SW12      29.97R WCI  33

$$

REGIONAL REPORTS    NEVADA/IDAHO/WYOMING

CITY           SKY/WX    TMP DP  RH WIND       PRES   REMARKS
LAS VEGAS, NV  MOCLDY    59  36  42 S14       29.74R
ELY            MOCLDY    32  30  92 S9        29.82F WCI  24
ELKO           CLOUDY    37  34  89 E5        29.76F WCI  33
POCATELLO, ID  MOCLDY    39  32  76 SW16      29.82R WCI  30
BURLEY         PTCLDY    38  30  73 S9        29.79S WCI  31
EVANSTON, WY   PTCLDY    31  31 100 SW13      29.83F WCI  21
ROCK SPRINGS   CLOUDY    36  30  79 SW16      29.82R WCI  26

$$



USA.gov is the U.S. government's official web portal to all federal, state and local government web resources and services.